Year,Month,Day,Hour,Minute,Value (Times are PST for windgust in km/hr)
2016,05,08,00,00,29.00
2016,05,08,00,01,29.00
2016,05,08,00,02,20.90
2016,05,08,00,03,32.20
2016,05,08,00,04,24.20
2016,05,08,00,05,20.90
2016,05,08,00,06,27.40
2016,05,08,00,07,25.70
2016,05,08,00,08,24.20
2016,05,08,00,09,14.50
2016,05,08,00,10,22.50
2016,05,08,00,11,29.00
2016,05,08,00,12,27.40
2016,05,08,00,13,25.70
2016,05,08,00,14,27.40
2016,05,08,00,15,25.70
2016,05,08,00,16,35.40
2016,05,08,00,17,29.00
2016,05,08,00,18,20.90
2016,05,08,00,19,25.70
2016,05,08,00,20,19.30
2016,05,08,00,21,24.20
2016,05,08,00,22,25.70
2016,05,08,00,23,35.40
2016,05,08,00,24,22.50
2016,05,08,00,25,29.00
2016,05,08,00,26,24.20
2016,05,08,00,27,22.50
2016,05,08,00,28,24.20
2016,05,08,00,29,27.40
2016,05,08,00,30,35.40
2016,05,08,00,31,29.00
2016,05,08,00,32,25.70
2016,05,08,00,33,27.40
2016,05,08,00,34,22.50
2016,05,08,00,35,25.70
2016,05,08,00,36,29.00
2016,05,08,00,37,12.90
2016,05,08,00,38,12.90
2016,05,08,00,39,16.10
2016,05,08,00,40,19.30
2016,05,08,00,41,29.00
2016,05,08,00,42,20.90
2016,05,08,00,43,27.40
2016,05,08,00,44,33.80
2016,05,08,00,45,20.90
2016,05,08,00,46,27.40
2016,05,08,00,47,25.70
2016,05,08,00,48,16.10
2016,05,08,00,49,19.30
2016,05,08,00,50,17.70
2016,05,08,00,51,37.00
2016,05,08,00,52,25.70
2016,05,08,00,53,22.50
2016,05,08,00,54,17.70
2016,05,08,00,55,14.50
2016,05,08,00,56,27.40
2016,05,08,00,57,24.20
2016,05,08,00,58,22.50
2016,05,08,00,59,24.20
2016,05,08,01,00,12.90
2016,05,08,01,01,16.10
2016,05,08,01,02,22.50
2016,05,08,01,03,20.90
2016,05,08,01,04,20.90
2016,05,08,01,05,16.10
2016,05,08,01,06,20.90
2016,05,08,01,07,14.50
2016,05,08,01,08,24.20
2016,05,08,01,09,16.10
2016,05,08,01,10,17.70
2016,05,08,01,11,14.50
2016,05,08,01,12,16.10
2016,05,08,01,13,14.50
2016,05,08,01,14,29.00
2016,05,08,01,15,19.30
2016,05,08,01,16,22.50
2016,05,08,01,17,22.50
2016,05,08,01,18,19.30
2016,05,08,01,19,12.90
2016,05,08,01,20,8.10
2016,05,08,01,21,12.90
2016,05,08,01,22,12.90
2016,05,08,01,23,29.00
2016,05,08,01,24,11.30
2016,05,08,01,25,19.30
2016,05,08,01,26,11.30
2016,05,08,01,27,20.90
2016,05,08,01,28,20.90
2016,05,08,01,29,19.30
2016,05,08,01,30,17.70
2016,05,08,01,31,19.30
2016,05,08,01,32,25.70
2016,05,08,01,33,33.80
2016,05,08,01,34,20.90
2016,05,08,01,35,11.30
2016,05,08,01,36,19.30
2016,05,08,01,37,16.10
2016,05,08,01,38,8.10
2016,05,08,01,39,12.90
2016,05,08,01,40,8.10
2016,05,08,01,41,11.30
2016,05,08,01,42,9.60
2016,05,08,01,43,8.10
2016,05,08,01,44,12.90
2016,05,08,01,45,6.40
2016,05,08,01,46,8.10
2016,05,08,01,47,12.90
2016,05,08,01,48,12.90
2016,05,08,01,49,9.60
2016,05,08,01,50,9.60
2016,05,08,01,51,14.50
2016,05,08,01,52,12.90
2016,05,08,01,53,8.10
2016,05,08,01,54,1.60
2016,05,08,01,55,14.50
2016,05,08,01,56,11.30
2016,05,08,01,57,9.60
2016,05,08,01,58,6.40
2016,05,08,01,59,19.30
2016,05,08,02,00,14.50
2016,05,08,02,01,17.70
2016,05,08,02,02,8.10
2016,05,08,02,03,4.80
2016,05,08,02,04,8.10
2016,05,08,02,05,12.90
2016,05,08,02,06,12.90
2016,05,08,02,07,6.40
2016,05,08,02,08,6.40
2016,05,08,02,09,11.30
2016,05,08,02,10,4.80
2016,05,08,02,11,1.60
2016,05,08,02,12,17.70
2016,05,08,02,13,17.70
2016,05,08,02,14,9.60
2016,05,08,02,15,12.90
2016,05,08,02,16,14.50
2016,05,08,02,17,11.30
2016,05,08,02,18,12.90
2016,05,08,02,19,12.90
2016,05,08,02,20,6.40
2016,05,08,02,21,8.10
2016,05,08,02,22,8.10
2016,05,08,02,23,4.80
2016,05,08,02,24,6.40
2016,05,08,02,25,12.90
2016,05,08,02,26,9.60
2016,05,08,02,28,8.10
2016,05,08,02,30,11.30
2016,05,08,02,31,16.10
2016,05,08,02,32,16.10
2016,05,08,02,33,1.60
2016,05,08,02,36,9.60
2016,05,08,02,37,9.60
2016,05,08,02,38,14.50
2016,05,08,02,39,9.60
2016,05,08,02,40,24.20
2016,05,08,02,41,25.70
2016,05,08,02,42,20.90
2016,05,08,02,43,17.70
2016,05,08,02,44,9.60
2016,05,08,02,45,16.10
2016,05,08,02,46,9.60
2016,05,08,02,47,14.50
2016,05,08,02,48,9.60
2016,05,08,02,49,12.90
2016,05,08,02,50,4.80
2016,05,08,02,51,11.30
2016,05,08,02,52,17.70
2016,05,08,02,53,11.30
2016,05,08,02,54,20.90
2016,05,08,02,55,17.70
2016,05,08,02,56,19.30
2016,05,08,02,57,30.60
2016,05,08,02,58,29.00
2016,05,08,02,59,35.40
2016,05,08,03,00,24.20
2016,05,08,03,01,19.30
2016,05,08,03,02,24.20
2016,05,08,03,03,25.70
2016,05,08,03,04,24.20
2016,05,08,03,05,24.20
2016,05,08,03,06,24.20
2016,05,08,03,07,24.20
2016,05,08,03,08,20.90
2016,05,08,03,09,17.70
2016,05,08,03,10,20.90
2016,05,08,03,11,25.70
2016,05,08,03,12,29.00
2016,05,08,03,13,32.20
2016,05,08,03,14,24.20
2016,05,08,03,15,32.20
2016,05,08,03,16,19.30
2016,05,08,03,17,20.90
2016,05,08,03,18,19.30
2016,05,08,03,19,16.10
2016,05,08,03,20,22.50
2016,05,08,03,21,19.30
2016,05,08,03,22,14.50
2016,05,08,03,23,19.30
2016,05,08,03,24,19.30
2016,05,08,03,25,19.30
2016,05,08,03,26,22.50
2016,05,08,03,27,19.30
2016,05,08,03,28,14.50
2016,05,08,03,29,17.70
2016,05,08,03,30,24.20
2016,05,08,03,31,24.20
2016,05,08,03,32,20.90
2016,05,08,03,33,22.50
2016,05,08,03,34,17.70
2016,05,08,03,35,20.90
2016,05,08,03,36,25.70
2016,05,08,03,37,14.50
2016,05,08,03,38,12.90
2016,05,08,03,39,11.30
2016,05,08,03,40,11.30
2016,05,08,03,41,16.10
2016,05,08,03,42,16.10
2016,05,08,03,43,12.90
2016,05,08,03,44,12.90
2016,05,08,03,45,8.10
2016,05,08,03,46,12.90
2016,05,08,03,47,14.50
2016,05,08,03,48,9.60
2016,05,08,03,49,14.50
2016,05,08,03,50,9.60
2016,05,08,03,51,6.40
2016,05,08,03,52,8.10
2016,05,08,03,53,11.30
2016,05,08,03,54,12.90
2016,05,08,03,55,14.50
2016,05,08,03,56,12.90
2016,05,08,03,57,6.40
2016,05,08,03,59,6.40
2016,05,08,04,00,8.10
2016,05,08,04,01,14.50
2016,05,08,04,02,6.40
2016,05,08,04,03,8.10
2016,05,08,04,04,11.30
2016,05,08,04,05,12.90
2016,05,08,04,06,14.50
2016,05,08,04,07,9.60
2016,05,08,04,08,9.60
2016,05,08,04,11,11.30
2016,05,08,04,12,14.50
2016,05,08,04,13,14.50
2016,05,08,04,14,8.10
2016,05,08,04,15,8.10
2016,05,08,04,16,9.60
2016,05,08,04,17,9.60
2016,05,08,04,18,8.10
2016,05,08,04,19,9.60
2016,05,08,04,20,11.30
2016,05,08,04,21,9.60
2016,05,08,04,22,8.10
2016,05,08,04,23,6.40
2016,05,08,04,24,12.90
2016,05,08,04,25,11.30
2016,05,08,04,26,11.30
2016,05,08,04,27,17.70
2016,05,08,04,28,9.60
2016,05,08,04,29,14.50
2016,05,08,04,30,11.30
2016,05,08,04,31,14.50
2016,05,08,04,32,12.90
2016,05,08,04,33,11.30
2016,05,08,04,34,11.30
2016,05,08,04,35,12.90
2016,05,08,04,36,14.50
2016,05,08,04,37,14.50
2016,05,08,04,38,11.30
2016,05,08,04,39,9.60
2016,05,08,04,40,12.90
2016,05,08,04,41,14.50
2016,05,08,04,42,12.90
2016,05,08,04,43,17.70
2016,05,08,04,44,9.60
2016,05,08,04,45,12.90
2016,05,08,04,46,12.90
2016,05,08,04,47,12.90
2016,05,08,04,48,12.90
2016,05,08,04,49,11.30
2016,05,08,04,50,9.60
2016,05,08,04,51,12.90
2016,05,08,04,52,11.30
2016,05,08,04,53,14.50
2016,05,08,04,54,11.30
2016,05,08,04,55,11.30
2016,05,08,04,56,9.60
2016,05,08,04,57,8.10
2016,05,08,04,58,11.30
2016,05,08,04,59,8.10
2016,05,08,05,00,8.10
2016,05,08,05,02,3.20
2016,05,08,05,03,11.30
2016,05,08,05,04,16.10
2016,05,08,05,05,12.90
2016,05,08,05,06,9.60
2016,05,08,05,08,3.20
2016,05,08,05,09,12.90
2016,05,08,05,10,9.60
2016,05,08,05,11,11.30
2016,05,08,05,12,14.50
2016,05,08,05,13,11.30
2016,05,08,05,14,6.40
2016,05,08,05,15,6.40
2016,05,08,05,16,9.60
2016,05,08,05,17,4.80
2016,05,08,05,18,19.30
2016,05,08,05,19,11.30
2016,05,08,05,20,9.60
2016,05,08,05,21,9.60
2016,05,08,05,22,8.10
2016,05,08,05,23,9.60
2016,05,08,05,25,6.40
2016,05,08,05,26,4.80
2016,05,08,05,27,8.10
2016,05,08,05,28,9.60
2016,05,08,05,29,6.40
2016,05,08,05,30,8.10
2016,05,08,05,31,11.30
2016,05,08,05,32,6.40
2016,05,08,05,33,8.10
2016,05,08,05,34,9.60
2016,05,08,05,35,8.10
2016,05,08,05,36,8.10
2016,05,08,05,37,9.60
2016,05,08,05,38,14.50
2016,05,08,05,39,9.60
2016,05,08,05,40,8.10
2016,05,08,05,41,17.70
2016,05,08,05,42,17.70
2016,05,08,05,43,17.70
2016,05,08,05,44,11.30
2016,05,08,05,45,12.90
2016,05,08,05,46,9.60
2016,05,08,05,47,9.60
2016,05,08,05,48,12.90
2016,05,08,05,49,12.90
2016,05,08,05,50,6.40
2016,05,08,05,51,11.30
2016,05,08,05,52,12.90
2016,05,08,05,53,16.10
2016,05,08,05,54,11.30
2016,05,08,05,55,8.10
2016,05,08,05,56,12.90
2016,05,08,05,57,8.10
2016,05,08,05,58,12.90
2016,05,08,05,59,8.10
2016,05,08,06,00,8.10
2016,05,08,06,01,9.60
2016,05,08,06,02,19.30
2016,05,08,06,03,11.30
2016,05,08,06,04,11.30
2016,05,08,06,05,9.60
2016,05,08,06,06,8.10
2016,05,08,06,07,6.40
2016,05,08,06,08,14.50
2016,05,08,06,09,11.30
2016,05,08,06,10,8.10
2016,05,08,06,11,12.90
2016,05,08,06,12,14.50
2016,05,08,06,13,9.60
2016,05,08,06,14,6.40
2016,05,08,06,15,11.30
2016,05,08,06,16,17.70
2016,05,08,06,17,12.90
2016,05,08,06,18,11.30
2016,05,08,06,19,11.30
2016,05,08,06,20,11.30
2016,05,08,06,21,17.70
2016,05,08,06,22,11.30
2016,05,08,06,23,9.60
2016,05,08,06,24,11.30
2016,05,08,06,25,9.60
2016,05,08,06,26,12.90
2016,05,08,06,27,19.30
2016,05,08,06,28,17.70
2016,05,08,06,29,17.70
2016,05,08,06,30,17.70
2016,05,08,06,31,11.30
2016,05,08,06,32,9.60
2016,05,08,06,33,17.70
2016,05,08,06,34,14.50
2016,05,08,06,35,16.10
2016,05,08,06,36,14.50
2016,05,08,06,37,16.10
2016,05,08,06,38,20.90
2016,05,08,06,39,12.90
2016,05,08,06,40,11.30
2016,05,08,06,41,19.30
2016,05,08,06,42,12.90
2016,05,08,06,43,14.50
2016,05,08,06,44,11.30
2016,05,08,06,45,11.30
2016,05,08,06,46,22.50
2016,05,08,06,47,17.70
2016,05,08,06,48,14.50
2016,05,08,06,49,9.60
2016,05,08,06,50,20.90
2016,05,08,06,51,12.90
2016,05,08,06,52,16.10
2016,05,08,06,53,8.10
2016,05,08,06,54,9.60
2016,05,08,06,55,11.30
2016,05,08,06,56,14.50
2016,05,08,06,57,12.90
2016,05,08,06,58,14.50
2016,05,08,06,59,11.30
2016,05,08,07,00,11.30
2016,05,08,07,01,14.50
2016,05,08,07,02,11.30
2016,05,08,07,03,8.10
2016,05,08,07,04,9.60
2016,05,08,07,05,14.50
2016,05,08,07,06,17.70
2016,05,08,07,07,14.50
2016,05,08,07,08,11.30
2016,05,08,07,09,14.50
2016,05,08,07,10,9.60
2016,05,08,07,11,9.60
2016,05,08,07,12,9.60
2016,05,08,07,13,8.10
2016,05,08,07,14,12.90
2016,05,08,07,15,16.10
2016,05,08,07,16,16.10
2016,05,08,07,17,14.50
2016,05,08,07,18,16.10
2016,05,08,07,19,14.50
2016,05,08,07,20,12.90
2016,05,08,07,21,20.90
2016,05,08,07,22,14.50
2016,05,08,07,23,14.50
2016,05,08,07,24,14.50
2016,05,08,07,25,16.10
2016,05,08,07,26,14.50
2016,05,08,07,27,17.70
2016,05,08,07,28,14.50
2016,05,08,07,29,16.10
2016,05,08,07,30,11.30
2016,05,08,07,31,9.60
2016,05,08,07,32,12.90
2016,05,08,07,33,9.60
2016,05,08,07,34,11.30
2016,05,08,07,35,11.30
2016,05,08,07,36,12.90
2016,05,08,07,37,11.30
2016,05,08,07,38,14.50
2016,05,08,07,39,12.90
2016,05,08,07,40,8.10
2016,05,08,07,41,16.10
2016,05,08,07,42,9.60
2016,05,08,07,43,14.50
2016,05,08,07,44,16.10
2016,05,08,07,45,14.50
2016,05,08,07,46,14.50
2016,05,08,07,47,16.10
2016,05,08,07,48,12.90
2016,05,08,07,49,14.50
2016,05,08,07,50,11.30
2016,05,08,07,51,12.90
2016,05,08,07,52,14.50
2016,05,08,07,53,12.90
2016,05,08,07,54,14.50
2016,05,08,07,55,11.30
2016,05,08,07,56,9.60
2016,05,08,07,57,9.60
2016,05,08,07,58,11.30
2016,05,08,07,59,6.40
2016,05,08,08,00,11.30
2016,05,08,08,01,14.50
2016,05,08,08,02,14.50
2016,05,08,08,03,11.30
2016,05,08,08,04,11.30
2016,05,08,08,05,8.10
2016,05,08,08,06,11.30
2016,05,08,08,07,11.30
2016,05,08,08,08,9.60
2016,05,08,08,09,11.30
2016,05,08,08,10,8.10
2016,05,08,08,11,9.60
2016,05,08,08,12,11.30
2016,05,08,08,13,12.90
2016,05,08,08,14,9.60
2016,05,08,08,15,9.60
2016,05,08,08,16,11.30
2016,05,08,08,17,9.60
2016,05,08,08,18,11.30
2016,05,08,08,19,6.40
2016,05,08,08,20,19.30
2016,05,08,08,21,12.90
2016,05,08,08,22,9.60
2016,05,08,08,23,11.30
2016,05,08,08,24,12.90
2016,05,08,08,25,11.30
2016,05,08,08,26,11.30
2016,05,08,08,27,14.50
2016,05,08,08,28,9.60
2016,05,08,08,29,11.30
2016,05,08,08,30,11.30
2016,05,08,08,31,12.90
2016,05,08,08,32,8.10
2016,05,08,08,33,6.40
2016,05,08,08,34,8.10
2016,05,08,08,35,11.30
2016,05,08,08,36,9.60
2016,05,08,08,37,11.30
2016,05,08,08,38,11.30
2016,05,08,08,39,14.50
2016,05,08,08,40,14.50
2016,05,08,08,41,14.50
2016,05,08,08,42,11.30
2016,05,08,08,43,9.60
2016,05,08,08,44,11.30
2016,05,08,08,45,12.90
2016,05,08,08,46,9.60
2016,05,08,08,47,8.10
2016,05,08,08,48,11.30
2016,05,08,08,49,12.90
2016,05,08,08,50,9.60
2016,05,08,08,51,9.60
2016,05,08,08,52,8.10
2016,05,08,08,53,12.90
2016,05,08,08,54,6.40
2016,05,08,08,55,8.10
2016,05,08,08,56,6.40
2016,05,08,08,57,9.60
2016,05,08,08,58,6.40
2016,05,08,08,59,8.10
2016,05,08,09,00,6.40
2016,05,08,09,01,9.60
2016,05,08,09,02,4.80
2016,05,08,09,03,8.10
2016,05,08,09,04,9.60
2016,05,08,09,05,9.60
2016,05,08,09,06,11.30
2016,05,08,09,07,6.40
2016,05,08,09,08,8.10
2016,05,08,09,09,6.40
2016,05,08,09,10,8.10
2016,05,08,09,11,12.90
2016,05,08,09,12,9.60
2016,05,08,09,13,11.30
2016,05,08,09,14,8.10
2016,05,08,09,15,4.80
2016,05,08,09,16,8.10
2016,05,08,09,17,9.60
2016,05,08,09,18,8.10
2016,05,08,09,19,8.10
2016,05,08,09,20,9.60
2016,05,08,09,21,4.80
2016,05,08,09,22,8.10
2016,05,08,09,23,8.10
2016,05,08,09,24,11.30
2016,05,08,09,25,12.90
2016,05,08,09,26,11.30
2016,05,08,09,27,11.30
2016,05,08,09,28,11.30
2016,05,08,09,29,16.10
2016,05,08,09,30,6.40
2016,05,08,09,31,8.10
2016,05,08,09,32,8.10
2016,05,08,09,33,6.40
2016,05,08,09,34,9.60
2016,05,08,09,35,9.60
2016,05,08,09,36,11.30
2016,05,08,09,37,11.30
2016,05,08,09,38,8.10
2016,05,08,09,39,8.10
2016,05,08,09,40,3.20
2016,05,08,09,41,9.60
2016,05,08,09,42,1.60
2016,05,08,09,44,9.60
2016,05,08,09,45,1.60
2016,05,08,09,46,9.60
2016,05,08,09,47,9.60
2016,05,08,09,48,6.40
2016,05,08,09,49,8.10
2016,05,08,09,50,9.60
2016,05,08,09,51,8.10
2016,05,08,09,52,8.10
2016,05,08,09,53,4.80
2016,05,08,09,54,8.10
2016,05,08,09,55,9.60
2016,05,08,09,56,12.90
2016,05,08,09,57,6.40
2016,05,08,09,58,4.80
2016,05,08,09,59,4.80
2016,05,08,10,00,4.80
2016,05,08,10,03,1.60
2016,05,08,10,04,9.60
2016,05,08,10,05,1.60
2016,05,08,10,06,6.40
2016,05,08,10,07,3.20
2016,05,08,10,08,6.40
2016,05,08,10,09,8.10
2016,05,08,10,10,3.20
2016,05,08,10,11,6.40
2016,05,08,10,12,4.80
2016,05,08,10,14,1.60
2016,05,08,10,15,4.80
2016,05,08,10,16,6.40
2016,05,08,10,17,1.60
2016,05,08,10,18,3.20
2016,05,08,10,19,9.60
2016,05,08,10,20,4.80
2016,05,08,10,22,4.80
2016,05,08,10,23,4.80
2016,05,08,10,24,8.10
2016,05,08,10,25,8.10
2016,05,08,10,26,8.10
2016,05,08,10,27,1.60
2016,05,08,10,28,6.40
2016,05,08,10,29,4.80
2016,05,08,10,30,9.60
2016,05,08,10,31,8.10
2016,05,08,10,32,3.20
2016,05,08,10,35,3.20
2016,05,08,10,36,1.60
2016,05,08,10,49,6.40
2016,05,08,10,50,4.80
2016,05,08,10,53,6.40
2016,05,08,10,54,8.10
2016,05,08,10,56,1.60
2016,05,08,10,57,3.20
2016,05,08,10,58,4.80
2016,05,08,11,08,3.20
2016,05,08,11,10,6.40
2016,05,08,11,11,4.80
2016,05,08,11,12,4.80
2016,05,08,11,14,9.60
2016,05,08,11,15,6.40
2016,05,08,11,16,8.10
2016,05,08,11,17,3.20
2016,05,08,11,18,3.20
2016,05,08,11,19,4.80
2016,05,08,11,20,9.60
2016,05,08,11,21,3.20
2016,05,08,11,22,1.60
2016,05,08,11,25,1.60
2016,05,08,11,26,3.20
2016,05,08,11,27,8.10
2016,05,08,11,29,4.80
2016,05,08,11,30,9.60
2016,05,08,11,32,4.80
2016,05,08,11,33,4.80
2016,05,08,11,34,3.20
2016,05,08,11,35,1.60
2016,05,08,11,36,11.30
2016,05,08,11,37,9.60
2016,05,08,11,38,12.90
2016,05,08,11,39,11.30
2016,05,08,11,40,6.40
2016,05,08,11,41,4.80
2016,05,08,11,42,1.60
2016,05,08,11,43,14.50
2016,05,08,11,44,9.60
2016,05,08,11,45,6.40
2016,05,08,11,46,3.20
2016,05,08,11,47,1.60
2016,05,08,11,48,8.10
2016,05,08,11,51,3.20
2016,05,08,11,53,3.20
2016,05,08,11,57,4.80
2016,05,08,11,58,1.60
2016,05,08,11,59,4.80
2016,05,08,12,00,1.60
2016,05,08,12,01,9.60
2016,05,08,12,02,9.60
2016,05,08,12,03,8.10
2016,05,08,12,05,3.20
2016,05,08,12,06,4.80
2016,05,08,12,07,4.80
2016,05,08,12,08,1.60
2016,05,08,12,09,3.20
2016,05,08,12,10,3.20
2016,05,08,12,11,8.10
2016,05,08,12,12,6.40
2016,05,08,12,13,4.80
2016,05,08,12,16,11.30
2016,05,08,12,17,6.40
2016,05,08,12,18,9.60
2016,05,08,12,19,3.20
2016,05,08,12,22,1.60
2016,05,08,12,23,8.10
2016,05,08,12,24,12.90
2016,05,08,12,25,11.30
2016,05,08,12,26,9.60
2016,05,08,12,27,3.20
2016,05,08,12,29,11.30
2016,05,08,12,30,8.10
2016,05,08,12,31,11.30
2016,05,08,12,32,11.30
2016,05,08,12,34,1.60
2016,05,08,12,35,8.10
2016,05,08,12,36,6.40
2016,05,08,12,37,8.10
2016,05,08,12,38,4.80
2016,05,08,12,39,3.20
2016,05,08,12,42,1.60
2016,05,08,12,45,4.80
2016,05,08,12,46,11.30
2016,05,08,12,47,9.60
2016,05,08,12,48,8.10
2016,05,08,12,49,6.40
2016,05,08,12,50,8.10
2016,05,08,12,51,4.80
2016,05,08,12,52,1.60
2016,05,08,12,53,1.60
2016,05,08,12,55,14.50
2016,05,08,12,56,16.10
2016,05,08,12,57,4.80
2016,05,08,12,58,8.10
2016,05,08,12,59,4.80
2016,05,08,13,00,11.30
2016,05,08,13,01,12.90
2016,05,08,13,02,12.90
2016,05,08,13,03,11.30
2016,05,08,13,04,9.60
2016,05,08,13,05,11.30
2016,05,08,13,06,14.50
2016,05,08,13,07,17.70
2016,05,08,13,08,14.50
2016,05,08,13,09,11.30
2016,05,08,13,10,8.10
2016,05,08,13,11,16.10
2016,05,08,13,12,8.10
2016,05,08,13,13,9.60
2016,05,08,13,14,9.60
2016,05,08,13,15,8.10
2016,05,08,13,16,3.20
2016,05,08,13,17,4.80
2016,05,08,13,18,8.10
2016,05,08,13,20,4.80
2016,05,08,13,21,1.60
2016,05,08,13,25,3.20
2016,05,08,13,26,3.20
2016,05,08,13,28,12.90
2016,05,08,13,29,8.10
2016,05,08,13,30,4.80
2016,05,08,13,31,6.40
2016,05,08,13,32,6.40
2016,05,08,13,33,4.80
2016,05,08,13,34,8.10
2016,05,08,13,35,4.80
2016,05,08,13,38,4.80
2016,05,08,13,39,3.20
2016,05,08,13,40,4.80
2016,05,08,13,41,1.60
2016,05,08,13,42,3.20
2016,05,08,13,45,11.30
2016,05,08,13,46,1.60
2016,05,08,13,48,4.80
2016,05,08,13,49,12.90
2016,05,08,13,50,3.20
2016,05,08,13,51,3.20
2016,05,08,13,52,3.20
2016,05,08,13,53,4.80
2016,05,08,13,54,11.30
2016,05,08,13,55,11.30
2016,05,08,13,58,8.10
2016,05,08,14,01,4.80
2016,05,08,14,02,6.40
2016,05,08,14,03,11.30
2016,05,08,14,04,1.60
2016,05,08,14,05,8.10
2016,05,08,14,08,4.80
2016,05,08,14,09,6.40
2016,05,08,14,10,3.20
2016,05,08,14,11,3.20
2016,05,08,14,12,1.60
2016,05,08,14,13,4.80
2016,05,08,14,14,8.10
2016,05,08,14,15,9.60
2016,05,08,14,16,8.10
2016,05,08,14,17,4.80
2016,05,08,14,19,8.10
2016,05,08,14,20,4.80
2016,05,08,14,22,4.80
2016,05,08,14,23,1.60
2016,05,08,14,24,4.80
2016,05,08,14,27,3.20
2016,05,08,14,28,1.60
2016,05,08,14,29,3.20
2016,05,08,14,30,4.80
2016,05,08,14,32,8.10
2016,05,08,14,33,1.60
2016,05,08,14,37,3.20
2016,05,08,14,38,3.20
2016,05,08,14,39,8.10
2016,05,08,14,40,8.10
2016,05,08,14,46,1.60
2016,05,08,14,49,11.30
2016,05,08,14,50,4.80
2016,05,08,14,51,1.60
2016,05,08,14,52,9.60
2016,05,08,14,53,8.10
2016,05,08,14,54,11.30
2016,05,08,14,55,8.10
2016,05,08,14,56,8.10
2016,05,08,14,57,9.60
2016,05,08,14,58,4.80
2016,05,08,14,59,9.60
2016,05,08,15,00,4.80
2016,05,08,15,02,9.60
2016,05,08,15,03,6.40
2016,05,08,15,04,4.80
2016,05,08,15,05,9.60
2016,05,08,15,06,8.10
2016,05,08,15,07,4.80
2016,05,08,15,08,1.60
2016,05,08,15,09,12.90
2016,05,08,15,10,1.60
2016,05,08,15,16,4.80
2016,05,08,15,17,9.60
2016,05,08,15,18,6.40
2016,05,08,15,19,6.40
2016,05,08,15,21,6.40
2016,05,08,15,22,4.80
2016,05,08,15,23,9.60
2016,05,08,15,24,3.20
2016,05,08,15,27,1.60
2016,05,08,15,28,11.30
2016,05,08,15,29,3.20
2016,05,08,15,31,4.80
2016,05,08,15,32,4.80
2016,05,08,15,33,6.40
2016,05,08,15,34,1.60
2016,05,08,15,35,11.30
2016,05,08,15,36,4.80
2016,05,08,15,37,9.60
2016,05,08,15,38,6.40
2016,05,08,15,39,9.60
2016,05,08,15,40,4.80
2016,05,08,15,42,8.10
2016,05,08,15,43,1.60
2016,05,08,15,44,3.20
2016,05,08,15,45,3.20
2016,05,08,15,46,4.80
2016,05,08,15,48,6.40
2016,05,08,15,56,6.40
2016,05,08,15,57,9.60
2016,05,08,15,58,11.30
2016,05,08,15,59,4.80
2016,05,08,16,00,3.20
2016,05,08,16,01,8.10
2016,05,08,16,05,1.60
2016,05,08,16,06,6.40
2016,05,08,16,07,11.30
2016,05,08,16,09,1.60
2016,05,08,16,10,4.80
2016,05,08,16,13,8.10
2016,05,08,16,14,11.30
2016,05,08,16,15,20.90
2016,05,08,16,16,19.30
2016,05,08,16,17,16.10
2016,05,08,16,18,12.90
2016,05,08,16,19,17.70
2016,05,08,16,20,14.50
2016,05,08,16,21,12.90
2016,05,08,16,22,16.10
2016,05,08,16,23,14.50
2016,05,08,16,24,17.70
2016,05,08,16,25,9.60
2016,05,08,16,26,8.10
2016,05,08,16,27,9.60
2016,05,08,16,28,8.10
2016,05,08,16,29,9.60
2016,05,08,16,30,16.10
2016,05,08,16,31,11.30
2016,05,08,16,32,19.30
2016,05,08,16,33,11.30
2016,05,08,16,34,19.30
2016,05,08,16,35,20.90
2016,05,08,16,36,19.30
2016,05,08,16,37,19.30
2016,05,08,16,38,16.10
2016,05,08,16,39,19.30
2016,05,08,16,40,25.70
2016,05,08,16,41,11.30
2016,05,08,16,42,17.70
2016,05,08,16,43,24.20
2016,05,08,16,44,17.70
2016,05,08,16,45,30.60
2016,05,08,16,46,22.50
2016,05,08,16,47,22.50
2016,05,08,16,48,14.50
2016,05,08,16,49,20.90
2016,05,08,16,50,17.70
2016,05,08,16,51,20.90
2016,05,08,16,52,16.10
2016,05,08,16,53,22.50
2016,05,08,16,54,19.30
2016,05,08,16,55,16.10
2016,05,08,16,56,25.70
2016,05,08,16,57,27.40
2016,05,08,16,58,17.70
2016,05,08,16,59,20.90
2016,05,08,17,00,29.00
2016,05,08,17,01,25.70
2016,05,08,17,02,27.40
2016,05,08,17,03,22.50
2016,05,08,17,04,17.70
2016,05,08,17,05,24.20
2016,05,08,17,06,24.20
2016,05,08,17,07,27.40
2016,05,08,17,08,38.60
2016,05,08,17,09,27.40
2016,05,08,17,10,24.20
2016,05,08,17,11,14.50
2016,05,08,17,12,27.40
2016,05,08,17,13,24.20
2016,05,08,17,14,35.40
2016,05,08,17,15,24.20
2016,05,08,17,16,20.90
2016,05,08,17,17,29.00
2016,05,08,17,18,32.20
2016,05,08,17,19,29.00
2016,05,08,17,20,24.20
2016,05,08,17,21,20.90
2016,05,08,17,22,25.70
2016,05,08,17,23,32.20
2016,05,08,17,24,30.60
2016,05,08,17,25,25.70
2016,05,08,17,26,35.40
2016,05,08,17,27,27.40
2016,05,08,17,28,24.20
2016,05,08,17,29,27.40
2016,05,08,17,30,20.90
2016,05,08,17,31,24.20
2016,05,08,17,32,20.90
2016,05,08,17,33,27.40
2016,05,08,17,34,22.50
2016,05,08,17,35,19.30
2016,05,08,17,36,32.20
2016,05,08,17,37,24.20
2016,05,08,17,38,27.40
2016,05,08,17,39,29.00
2016,05,08,17,40,30.60
2016,05,08,17,41,35.40
2016,05,08,17,42,20.90
2016,05,08,17,43,19.30
2016,05,08,17,44,25.70
2016,05,08,17,45,33.80
2016,05,08,17,46,35.40
2016,05,08,17,47,16.10
2016,05,08,17,48,19.30
2016,05,08,17,49,25.70
2016,05,08,17,50,35.40
2016,05,08,17,51,30.60
2016,05,08,17,52,27.40
2016,05,08,17,53,20.90
2016,05,08,17,54,32.20
2016,05,08,17,55,29.00
2016,05,08,17,56,25.70
2016,05,08,17,57,33.80
2016,05,08,17,58,25.70
2016,05,08,17,59,35.40
2016,05,08,18,00,24.20
2016,05,08,18,01,24.20
2016,05,08,18,02,24.20
2016,05,08,18,03,19.30
2016,05,08,18,04,19.30
2016,05,08,18,05,17.70
2016,05,08,18,06,32.20
2016,05,08,18,07,29.00
2016,05,08,18,08,25.70
2016,05,08,18,09,29.00
2016,05,08,18,10,25.70
2016,05,08,18,11,27.40
2016,05,08,18,12,35.40
2016,05,08,18,13,29.00
2016,05,08,18,14,32.20
2016,05,08,18,15,20.90
2016,05,08,18,16,29.00
2016,05,08,18,17,25.70
2016,05,08,18,18,29.00
2016,05,08,18,19,25.70
2016,05,08,18,20,30.60
2016,05,08,18,21,19.30
2016,05,08,18,22,35.40
2016,05,08,18,23,27.40
2016,05,08,18,24,32.20
2016,05,08,18,25,25.70
2016,05,08,18,26,20.90
2016,05,08,18,27,25.70
2016,05,08,18,28,25.70
2016,05,08,18,29,22.50
2016,05,08,18,30,16.10
2016,05,08,18,31,20.90
2016,05,08,18,32,29.00
2016,05,08,18,33,30.60
2016,05,08,18,34,29.00
2016,05,08,18,35,20.90
2016,05,08,18,36,25.70
2016,05,08,18,37,22.50
2016,05,08,18,38,22.50
2016,05,08,18,39,20.90
2016,05,08,18,40,17.70
2016,05,08,18,41,20.90
2016,05,08,18,42,24.20
2016,05,08,18,43,17.70
2016,05,08,18,44,19.30
2016,05,08,18,45,16.10
2016,05,08,18,46,17.70
2016,05,08,18,47,22.50
2016,05,08,18,48,22.50
2016,05,08,18,49,27.40
2016,05,08,18,50,17.70
2016,05,08,18,51,19.30
2016,05,08,18,52,14.50
2016,05,08,18,53,22.50
2016,05,08,18,54,20.90
2016,05,08,18,55,19.30
2016,05,08,18,56,27.40
2016,05,08,18,57,19.30
2016,05,08,18,58,12.90
2016,05,08,18,59,24.20
2016,05,08,19,00,16.10
2016,05,08,19,01,16.10
2016,05,08,19,02,20.90
2016,05,08,19,03,16.10
2016,05,08,19,04,22.50
2016,05,08,19,05,19.30
2016,05,08,19,06,20.90
2016,05,08,19,07,17.70
2016,05,08,19,08,11.30
2016,05,08,19,09,17.70
2016,05,08,19,10,16.10
2016,05,08,19,11,24.20
2016,05,08,19,12,19.30
2016,05,08,19,13,19.30
2016,05,08,19,14,19.30
2016,05,08,19,15,24.20
2016,05,08,19,16,16.10
2016,05,08,19,17,30.60
2016,05,08,19,18,25.70
2016,05,08,19,19,27.40
2016,05,08,19,20,20.90
2016,05,08,19,21,27.40
2016,05,08,19,22,25.70
2016,05,08,19,23,20.90
2016,05,08,19,24,14.50
2016,05,08,19,25,17.70
2016,05,08,19,26,14.50
2016,05,08,19,27,12.90
2016,05,08,19,28,16.10
2016,05,08,19,29,24.20
2016,05,08,19,30,20.90
2016,05,08,19,31,14.50
2016,05,08,19,32,12.90
2016,05,08,19,33,12.90
2016,05,08,19,34,11.30
2016,05,08,19,35,17.70
2016,05,08,19,36,17.70
2016,05,08,19,37,11.30
2016,05,08,19,38,8.10
2016,05,08,19,39,9.60